Location: Unspecified
(0.0000°N, 0.0000°E)
Time: 15:47:44
(UTC+02:00)

NATO 3D Rocket - Visible Passes

Search period start: 20 April 2014 00:00
Search period end: 30 April 2014 00:00
Orbit: 670 x 2297 km, 21.5° (Epoch: 16 April)

Date Brightness Start Highest point End Pass type
(mag) Time Alt. Az. Time Alt. Az. Time Alt. Az.
20 Apr 7.1 03:40:22 15° NE 03:40:22 15° NE 03:42:25 10° NE visible
20 Apr 6.6 05:35:54 19° NNW 05:40:29 24° N 05:50:15 10° NE visible
21 Apr 6.6 04:42:21 23° N 04:42:21 23° N 04:50:30 10° NE visible
21 Apr 6.9 06:40:14 10° NW 06:49:27 27° N 07:00:15 10° ENE visible
21 Apr 5.0 21:27:52 10° SSW 21:30:22 19° S 21:30:22 19° S visible
22 Apr 7.1 03:48:49 15° NNE 03:48:49 15° NNE 03:51:04 10° NE visible
22 Apr 6.7 05:44:22 14° NNW 05:50:36 23° N 06:00:04 10° NE visible
22 Apr 5.2 20:31:28 10° SSW 20:34:20 15° SSE 20:37:03 10° SE visible
23 Apr 6.6 04:50:52 20° N 04:52:02 20° N 04:59:54 10° NE visible
23 Apr 6.9 06:49:49 10° NW 06:59:19 30° NNE 07:10:38 10° ENE visible
23 Apr 4.4 21:36:38 10° SW 21:39:52 30° S 21:39:52 30° S visible
24 Apr 7.0 03:57:26 15° NNE 03:57:26 15° NNE 04:00:02 10° NE visible
24 Apr 6.8 05:52:59 11° NW 06:00:36 25° NNE 06:10:19 10° ENE visible
24 Apr 4.6 20:39:51 10° SW 20:44:11 25° SSE 20:46:54 16° ESE visible
25 Apr 6.6 04:59:35 18° N 05:02:08 20° N 05:09:51 10° NE visible
25 Apr 6.8 06:59:05 10° NW 07:08:56 35° NNE 07:20:58 10° E visible
25 Apr 3.8 21:45:45 10° WSW 21:49:33 48° SW 21:49:33 48° SW visible
26 Apr 6.9 04:06:15 15° NNE 04:06:15 15° NNE 04:09:31 10° NE visible
26 Apr 6.7 06:02:12 10° NW 06:10:23 28° NNE 06:20:44 10° ENE visible
26 Apr 3.8 20:48:40 10° SW 20:53:56 44° SSE 20:56:39 22° E visible
27 Apr 6.5 05:08:31 18° NNW 05:12:06 22° NNE 05:20:14 10° ENE visible
27 Apr 6.5 07:08:12 10° NW 07:18:18 44° NNE 07:31:04 10° E visible
27 Apr 3.9 21:55:14 10° WSW 21:59:23 53° WNW 21:59:23 53° WNW visible
28 Apr 6.8 04:15:18 16° NNE 04:15:18 16° NNE 04:19:41 10° NE visible
28 Apr 6.5 06:11:25 10° NW 06:19:55 35° NNE 06:31:02 10° E visible
28 Apr 3.3 20:57:48 10° WSW 21:03:34 82° SSE 21:06:33 23° ENE visible
29 Apr 6.3 05:17:43 19° NNW 05:21:49 26° NNE 05:30:43 10° ENE visible
29 Apr 6.1 07:17:19 10° NW 07:27:28 57° NNE 07:40:47 10° E visible
29 Apr 4.7 22:05:08 10° W 22:09:19 34° NW 22:09:19 34° NW visible
